Terminal Aerodrome Forecast
Issued by NWS

Home | Current Version | Previous Version | Text Only | Print | Product List | Glossary On
Versions: 1 2 3 4 5 6 7 8 9 10 11 12 13 14 15 16 17 18 19 20 21 22 23 24 25 26 27 28 29 30 31 32 33 34 35 36 37 38 39 40 41 42 43
000
FTUS41 KGYX 281930 AAA
TAFMHT
TAF AMD
KMHT 281930Z 2819/2918 VRB03KT P6SM BKN050 BKN250
      TEMPO 2820/2824 3SM -TSRA BKN020CB
     FM290200 VRB03KT 4SM -SHRA BR OVC045
     FM290800 VRB03KT 3SM RA BR OVC018=

USA.gov is the U.S. government's official web portal to all federal, state and local government web resources and services.